Regional Weather Roundup
Issued by NWS

Home | Current Version | Previous Version | Graphics & Text | Print | Product List | Glossary On
Versions: 1 2 3 4 5 6 7 8 9 10 11 12 13 14 15 16 17 18 19 20 21 22 23 24 25 26 27 28 29 30 31 32 33 34 35 36 37 38 39 40 41 42 43 44 45 46 47 48 49 50
000
ASUS43 KLMK 211902
RWRKY
KENTUCKY REGIONAL WEATHER ROUNDUP
NATIONAL WEATHER SERVICE LOUISVILLE KY
200 PM EST SUN DEC 21 2014

NOTE "FAIR" INDICATES FEW OR NO CLOUDS BELOW 12,000 FEET
WITH NO SIGNIFICANT WEATHER AND/OR OBSTRUCTIONS TO VISIBILITY.

KYZ001>023-026-027-061>063-070>075-212000-
WESTERN AND SOUTH CENTRAL KENTUCKY

CITY           SKY/WX    TMP DP  RH WIND       PRES   REMARKS
PADUCAH        MOSUNNY   46  31  55 VRB5      30.14F
HENDERSON      PTSUNNY   43  28  56 E6        30.16F
OWENSBORO      PTSUNNY   43  30  60 SE8       30.17F
HOPKINSVILLE   SUNNY     48  30  50 E7        30.13F
BOWLING GREEN  MOSUNNY   49  29  46 E7        30.15F
GLASGOW        NOT AVBL
$$

KYZ024-025-028>034-038-045-046-053-212000-
NORTH CENTRAL KENTUCKY

CITY           SKY/WX    TMP DP  RH WIND       PRES   REMARKS
LOUISVILLE/SDF PTSUNNY   42  29  59 VRB6      30.20F
LOUISVILLE/LOU MOSUNNY   40  29  64 E5        30.21F
FORT KNOX      MOSUNNY   41  28  60 E7        30.16F
$$

KYZ035>037-039>044-047>052-055>060-089>105-212000-
NORTHEAST KENTUCKY

CITY           SKY/WX    TMP DP  RH WIND       PRES   REMARKS
LEXINGTON      SUNNY     40  28  62 NE7       30.19F
COVINGTON      PTSUNNY   37  25  61 SE9       30.21F WCI  30
FRANKFORT      SUNNY     39  28  64 E7        30.19F WCI  34
$$

KYZ054-064>069-076>088-106>120-212000-
SOUTHEAST KENTUCKY

CITY           SKY/WX    TMP DP  RH WIND       PRES   REMARKS
JACKSON        SUNNY     42  27  55 VRB5      30.17F
LONDON         SUNNY     47  28  47 SW3       30.17F
SOMERSET       NOT AVBL
MIDDLESBORO    PTSUNNY   48  32  53 S3        30.17S
MONTICELLO     CLEAR     49  29  46 NE5       30.19F
$$




USA.gov is the U.S. government's official web portal to all federal, state and local government web resources and services.